Weather in Baga-Burul

Russia / Republic of Kalmykia     45°59′51″N   44°35′57″E
temp.,
°C
wind,
m/s
gust,
m/s
humid.,
%
clouds,
%
prec.,
mm/h
press.,
hPa
HPBL,
m
28 september, tue
tue2800:00+11w36645 0.0 1016122
03:00+10w35697 0.0 101798
06:00+11w3669100 0.0 1017171
09:00+13wnw3466100 0.1 1018274
12:00+15nnw335455 0.0 10191045
15:00+17n444893 0.2 10191482
18:00+15ne345799 0.0 1020244
21:00+13ne356529 0.0 1022112
29 september, wed
wed2900:00+11ne47675 0.0 1022150
03:00+10ne487336 0.0 1023183
06:00+10ne6871100 0.0 1024431
09:00+10ne6859100 0.0 1025508
12:00+12ne5649100 0.0 10251110
15:00+13ne554496 0.0 10251427
18:00+11ne4648100 0.0 1025194
21:00+10ne5947100 0.0 1027433
30 september, thu
thu3000:00+8ne47532 0.0 1027156
03:00+7ne475631 0.0 1027157
06:00+6ne48582 0.0 1028164
09:00+10ne67430 0.0 1029672
12:00+13ene66330 0.0 10291777
15:00+14ene54314 0.0 10282007
18:00+11ne46385 0.0 1029126
21:00+9ne48446 0.0 1030196
1 october, fri
fri100:00+8ne48525 0.0 1031158
03:00+7ene47554 0.0 1031123
06:00+6ne46561 0.0 103298
09:00+10ene55391 0.0 1033538
12:00+13ene44313 0.0 10321677
15:00+14ene44281 0.0 10321884
18:00+11ne46340 0.0 1032127
21:00+9ne47380 0.0 1033132
2 october, sat
sat200:00+8ene47420 0.0 1033114
03:00+7e46460 0.0 103388
06:00+6ene45490 0.0 103370
09:00+11e57360 0.0 1034525
12:00+14ese77280 0.0 10331635
15:00+15e78280 0.0 10321696
18:00+12e59330 0.0 1032240
21:00+10ese511440 0.0 1032335